Location: Unspecified
(0.0000°N, 0.0000°E)
Time: 13:43:17
(UTC+02:00)

Ariane H10-3 - Visible Passes

Search period start: 30 September 2016 00:00
Search period end: 10 October 2016 00:00
Orbit: 271 x 20522 km, 7.3° (Epoch: 29 September)

Date Brightness Start Highest point End Pass type
(mag) Time Alt. Az. Time Alt. Az. Time Alt. Az.
30 Sep 8.9 02:19:07 67° ENE 02:19:07 67° ENE 06:27:16 10° E visible
01 Oct 8.9 02:20:41 67° ENE 02:20:41 67° ENE 06:29:17 10° E visible
02 Oct 8.9 02:22:10 68° ENE 02:22:10 68° ENE 06:31:12 10° E visible
03 Oct 8.9 02:23:34 68° ENE 02:23:34 68° ENE 06:33:01 10° E visible
04 Oct 8.9 02:24:53 69° ENE 02:24:53 69° ENE 06:34:42 10° E visible
05 Oct 8.9 02:26:06 69° ENE 02:26:06 69° ENE 06:36:17 10° E visible
06 Oct 8.9 02:27:16 70° ENE 02:27:16 70° ENE 06:37:46 10° E visible
07 Oct 8.9 02:28:20 70° ENE 02:28:20 70° ENE 06:39:08 10° E visible
08 Oct 8.9 02:29:19 71° ENE 02:29:19 71° ENE 06:40:23 10° E visible
09 Oct 8.9 02:30:14 71° ENE 02:30:14 71° ENE 06:41:32 10° E visible
